Starlink 30892

operational
NORAD ID: 58366 Int'l Des: 2023-177 Owner: SPXS Country: US Constellation: starlink
LEOCIRCULAR

About Starlink 30892

Description loading...

Live Position

Loading 3D Globe...

Upcoming Passes

Altitude History

Altitude vs Time

uPlot chart will show altitude changes over time

Two-Line Element Set

1 58366U 23177R 25351.58471359 -.00003087 00000-0 -21337-3 0 9995
2 58366 43.0041 77.8451 0001329 274.2077 85.8614 15.02567113115873
Epoch: Dec 17, 2025 • Age: 11 hours

Current Status

Altitude 565.8 km
Velocity 7.58 km/s
Sub-Earth Point -28.37°S, 165.23°W
Launch Date Nov 18, 2023
Age 2 years
Type internet

Technical Details

Classification Payload
Mass 730.00 kg
Dry Mass 700.00 kg
Total Mass 730.00 kg
Length 0.30 m
Diameter 4.10 m
Span 29.00 m
Shape Box + pan
Manufacturer SPXS
Bus Type Starlink V2M
Phase Status In Orbit
Owner/State SPXS/US

Large Constellations

Loading constellations...